www.pogodaiklimat.ru

Погода и климат >> Архив погоды >> Мали >> Bamako


ПОГОДА в Bamako

  • Прогноз погоды в Bamako
  • Монитор погоды в Bamako
  • Климат города

АРХИВ ПОГОДЫ в Bamako

Время (UTC), дата Ветер
(напр.,м/с)
 
Видим.   Явления Облачность Т
(С)
Тd
(С)
f
(%)
Тe
(С)
Тes
(С)
Комфортность P
(гПа)
Po
(гПа)
Тmin
(С)
Tmax
(С)
R
(мм)
R24
(мм)
S
(см)
03 19.09 В 1 10 км 5/1 900 м
[Sc Ac lent Ci sp]
+23.5 +22.8 96 +31 +31 очень
душно
1012.7 972.3
06 19.09 ЮЗ 1 10 км 4/1 900 м
[Sc Ci sp]
+22.4 +22.1 98 +30 +30 очень
душно
1013.2 972.4 +22.4
09 19.09 ЮЗ 3 10 км ясно +27.5 +24.0 81 +38 +44 очень
душно
1014.1 973.4
12 19.09 штиль 0 10 км 1/1 900 м
[Sc]
+32.0 +23.6 61 +43 +68 опасность
перегрева
1012.9 972.4
15 19.09 З 1 10 км 1/1 900 м
[Sc]
+33.7 +21.8 50 +42 +56 опасность
перегрева
1009.3 969.1
18 19.09 СЗ 1 10 км 1/1 900 м
[Sc]
+31.9 +24.1 63 +44 +44 опасность
перегрева
1009.3 969.0 +34.2
21 19.09 СЗ 1 10 км 1/1 900 м
[Sc]
+28.5 +24.3 78 +40 +40 очень
душно
1010.8 970.6
00 20.09 СЗ 2 10 км 1/1 900 м
[Sc]
+26.5 +24.5 89 +37 +37 очень
душно
1010.1 970.1
03 20.09 СЗ 2 10 км 1/1 900 м
[Sc]
+24.7 +24.0 96 +34 +34 очень
душно
1008.3 968.3
06 20.09 З 1 10 км 1/1 900 м
[Sc]
+24.2 +23.9 98 +33 +33 очень
душно
1009.3 969.1 +24.2
09 20.09 Ю 3 10 км 8/0
[Ac As]
+27.5 +24.7 85 +39 +42 очень
душно
1010.5 970.3
12 20.09 З 3 10 км 9/1 900 м
[Sc Ac As]
+32.0 +23.5 61 +43 +49 опасность
перегрева
1010.0 970.0
15 20.09 З 5 10 км 6/3 900 м
[Sc Ac As]
+33.3 +24.7 61 +46 +50 опасность
перегрева
1007.8 967.8
18 20.09 СЗ 3 10 км 4/1 900 м
[Sc Ac lent Ci sp]
+31.5 +23.8 64 +43 +43 опасность
перегрева
1006.8 966.7 +33.5
21 20.09 ЮЗ 2 10 км 6/1 900 м
[Sc Ac lent Ci sp]
+28.0 +25.2 85 +41 +41 опасность
перегрева
1008.5 968.3
00 21.09 ЮЗ 4 10 км 6/1 900 м
[Sc Ci sp]
+26.6 +23.6 84 +36 +36 очень
душно
1010.4 970.3
03 21.09 ЮЗ 3 10 км 5/1 900 м
[Sc Ci sp]
+23.7 +20.1 80 +29 +29 душно 1009.2 969.0
06 21.09 штиль 0 10 км 4/1 900 м
[Sc Ci sp]
+21.6 +20.7 95 +27 +27 душно 1009.5 969.1 +21.6
09 21.09 Ю 3 10 км 4/1 900 м
[Sc Ac lent Ci sp]
+26.0 +20.8 73 +33 +37 очень
душно
1011.3 970.8
12 21.09 Ю 3 10 км 4/1 900 м
[Sc Ac lent Ci sp]
+31.5 +21.2 54 +39 +52 опасность
солнечного
удара
1010.9 970.7
15 21.09 Ю 3 10 км 6/3 900 м
[Sc Ci sp]
+33.0 +22.6 54 +42 +49 опасность
перегрева
1009.1 969.0
18 21.09 Ю 3 10 км 8/1 900 м
[Cb cap Ci sp]
+30.9 +23.2 64 +41 +42 опасность
перегрева
1008.5 968.1 +33.2
21 21.09 Ю 3 10 км 6/3 900 м
[Sc Ci sp]
+33.0 +22.6 54 +42 +42 опасность
перегрева
1009.1 969.0
00 22.09 Ю 2 10 км зарница 6/1 900 м
[Cb cap Ac lent Ci sp]
+24.5 +22.3 88 +32 +32 очень
душно
1010.4 970.2
03 22.09 ЮЗ 2 10 км 5/1 900 м
[Cb cap Ac lent Ci sp]
+23.2 +21.7 91 +31 +31 очень
душно
1009.2 969.0
06 22.09 Ю 2 10 км 5/1 900 м
[Sc Ac lent Ci sp]
+22.6 +22.3 98 +30 +30 очень
душно
1009.4 969.1 +22.6
09 22.09 В 1 10 км 9/3 900 м
[Cb cap Ac As Ci sp]
+26.1 +22.9 83 +35 +38 очень
душно
1011.5 971.0
12 22.09 В 5 10 км 10/3 900 м
[Cb cap Ac As]
+25.4 +22.3 83 +33 +35 очень
душно
1011.1 970.4
15 22.09 З 3 10 км 9/1 900 м
[Sc Ac As Ci sp]
+25.2 +21.7 81 +32 +38 очень
душно
1010.1 969.1
18 22.09 ЮЗ 2 10 км 9/1 900 м
[Sc Ac As Ci sp]
+24.0 +21.5 86 +31 +31 очень
душно
1010.4 969.2 +28.0
21 22.09 ЮВ 3 10 км зарница 9/3 900 м
[Cb cap Ac lent Ci sp]
+22.6 +21.7 95 +30 +30 очень
душно
1012.1 971.3
00 23.09 В 2 10 км зарница 6/1 900 м
[Cb cap Ac lent Ci sp]
+22.2 +20.7 91 +29 +29 очень
душно
1011.8 970.9
03 23.09 штиль 0 10 км 6/3 900 м
[Sc Ac lent Ci sp]
+21.2 +20.6 96 +26 +26 душно 1010.4 969.4
06 23.09 ЮВ 3 10 км 10/4 900 м
[Sc Ac As]
+21.6 +20.8 95 +27 +27 душно 1011.0 970.0 +21.2
09 23.09 Ю 3 10 км 10/3 900 м
[Sc Ac As]
+23.0 +21.5 91 +31 +32 очень
душно
1012.8 971.7
12 23.09 ЮЗ 2 10 км 10/3 900 м
[Sc Ac As]
+26.6 +22.1 76 +34 +39 очень
душно
1012.8 971.9
15 23.09 штиль 0 10 км 9/6 900 м
[Cb cap Ac lent]
+29.0 +22.6 68 +38 +41 очень
душно
1009.9 969.1
18 23.09 В 4 10 км 8/4 900 м
[Sc Ci sp]
+27.5 +22.8 76 +37 +37 очень
душно
1010.3 969.3 +30.9
21 23.09 В 4 10 км зарница 8/1 900 м
[Cb cap Ac lent Ci sp]
+25.4 +22.5 84 +33 +33 очень
душно
1012.4 971.5
00 24.09 Ю 3 10 км {дождь} 9/3 900 м
[Sc Ac As Ci sp]
+23.4 +22.8 96 +33 +33 очень
душно
1013.6 972.8 3
03 24.09 Ю 4 10 км 9/3 900 м
[Sc Ac As Ci sp]
+22.5 +21.8 96 +30 +30 очень
душно
1012.4 971.4
06 24.09 Ю 4 10 км 9/3 900 м
[Sc Ac As Ci sp]
+22.4 +21.5 95 +30 +30 очень
душно
1013.3 972.2 +21.0 3
09 24.09 ЮЗ 3 10 км 3/3 900 м
[Sc Ac As Ci sp]
+23.4 +21.5 89 +32 +36 очень
душно
1015.0 974.1
12 24.09 ЮЗ 4 10 км {дождь} 9/5 900 м
[Sc Ac As Ci sp]
+26.8 +22.0 75 +35 +39 очень
душно
1014.7 973.9 0.0
15 24.09 З 3 10 км 8/5 900 м
[Sc Ac lent]
+29.4 +21.9 64 +38 +41 очень
душно
1012.2 971.6
18 24.09 ЮЗ 2 10 км 4/1 900 м
[Sc Ac lent]
+28.8 +22.5 69 +38 +38 очень
душно
1011.3 970.7 +30.4 0.0
21 24.09 штиль 0 10 км 4/1 900 м
[Sc Ac lent Ci sp]
+24.6 +24.0 96 +34 +34 очень
душно
1013.2 972.4
00 25.09 штиль 0 10 км 4/1 900 м
[Sc Ac lent Ci sp]
+22.5 +21.9 96 +30 +30 очень
душно
1013.3 972.4
03 25.09 штиль 0 10 км 4/1 900 м
[Sc Ac lent Ci sp]
+21.9 +21.8 99 +29 +29 очень
душно
1011.8 970.8
06 25.09 штиль 0 10 км сильная гроза с градом {туман} 4/1 900 м
[Sc Ac lent Ci sp]
+21.0 +20.7 98 +26 +26 душно 1012.2 971.4 +20.9
09 25.09 СЗ 2 10 км 1/1 900 м
[Sc]
+23.9 +21.1 84 +30 +37 очень
душно
1013.2 972.3
12 25.09 ЮЗ 2 10 км 3/1 900 м
[Sc Ci sp]
+31.9 +21.6 55 +40 +58 опасность
солнечного
удара
1011.9 971.5
15 25.09 СВ 3 10 км 5/4 900 м
[Sc Ci sp]
+34.0 +21.8 49 +42 +49 опасность
перегрева
1010.0 969.7
18 25.09 С 3 10 км 4/1 900 м
[Sc Ci sp]
+31.7 +22.1 57 +41 +41 опасность
перегрева
1008.9 968.5 +34.4
21 25.09 С 3 10 км 4/1 900 м
[Sc Ci sp]
+27.5 +24.2 82 +38 +38 очень
душно
1011.1 970.6
00 26.09 штиль 0 10 км зарница 6/1 900 м
[Cb cap Ci sp]
+25.0 +23.6 92 +34 +34 очень
душно
1010.3 970.1

 

Местоположение метеостанции Bamako (Мали): широта 12.53 долгота -7.95 высота над уровнем моря 381 м.

В архиве по умолчанию представлена погода в Bamako за последнюю неделю. Архивные данные за месяц целиком и за предыдущие месяцы, начиная с января 2011 года, Вы можете получить, выбрав интересующий диапазон дат из раскрывающегося списка и нажав кнопку "Ввод!".

Внимание! Время в таблицах - всемирное. Для получения местного времени необходимо прибавить поправку, которая в Bamako равна 0 ч.

Смотрите также архив погоды в соседних городах и на ближайших метеорологических станциях:

Погода в Bougouni (Мали) (133 км)
Погода в Kita (Мали) (175 км)
Погода в Segou (Мали) (218 км)
Погода в Koutiala (Мали) (270 км)
Погода в Sikasso (Мали) (280 км)
Погода в Nara (Мали) (302 км)
Погода в Odienne (Кот-д'Ивуар) (335 км)
Погода в Nioro Du Sahel (Мали) (336 км)
Погода в San (Мали) (350 км)
Погода в Kenieba (Мали) (358 км)

Пояснения к столбцам:

Ветер - указаны скорость ветра в м/с - средняя за 10 мин, порывы в срок и между сроками (в фигурных скобках) и направление, откуда дует ветер: С - северный, СВ - северо-восточный, В - восточный, ЮВ - юго-восточный, Ю - южный, ЮЗ - юго-западный, З - западный, СЗ - северо-западный.
Видимость - горизонтальная дальность видимости в метрах или километрах. При видимости от 1 до 10 км при отсутствии осадков обычно наблюдается дымка, при ухудшении видимости до 1 км и менее - туман. В сухую погоду видимость может ухудшаться дымом, пылью или мглою.
Явления - указаны атмосферные явления, наблюдавшиеся в срок или в последний час перед сроком; фигурными скобками обозначены явления, наблюдавшиеся между сроками (за 1-3 часа до срока); квадратными скобками обозначены град или гололедные отложения с указанием их диаметра в мм.
Облачность - указаны через наклонную черту общая и нижняя облачность в баллах и высота нижней границы облаков в метрах; квадратными скобками обозначены формы облаков: Ci - перистые, Cs - перисто-слоистые, Cc - перисто-кучевые, Ac - высококучевые, As - высокослоистые, Sc - слоисто-кучевые, Ns - слоисто-дождевые, Cu - кучевые, Cb - кучево-дождевые. Подробнее классификацию облаков см. в Атласе облаков (PDF).
T - Температура воздуха - температура, измеренная на высоте 2 м над землей.
Td - Температура точки росы - температура, при понижении до которой содержащийся в воздухе водяной пар достигнет насыщения.
f - Относительная влажность воздуха - влажноcть воздуха, измеренная на высоте 2 м над землей.
Te - Эффективная температура - температура, которую ощущает одетый по сезону человек в тени. Характеристика душности погоды. При расчете учитывается влияние влажности воздуха и скорости ветра на теплоощущения человека.
Tes - Эффективная температура на солнце - температура, которую ощущает человек, с поправкой на солнечный нагрев. Характеристика знойности погоды. Зависит от высоты солнца над горизонтом, облачности и скорости ветра. Ночью, в пасмурную погоду, а также при ветре 12 м/с и более поправка равна нулю.
P - Атмосферное давление - приведенное к уровню моря атмосферное давление.
Po - Атмосферное давление - измеренное на уровне метеостанции атмосферное давление.
Tmin - Минимальная температура - минимум температуры воздуха на высоте 2 м над землей.
Tmax - Максимальная температура - максимум температуры воздуха на высоте 2 м над землей.
R - Количество осадков - Количество выпавших осадков за период времени, мм. При наведении курсора мыши на число - период времени, за который выпало указанное количество осадков.
R24 - Количество осадков - Количество выпавших осадков за 24 часа, мм.
S - Снежный покров - Высота снежного покрова, см. При наведении курсора мыши на число - состояние снежного покрова и степень покрытия местности в баллах.